Погода в Песи

Россия / Новгородская область     58˚54′36″N   34˚20′05″E
темп.,
°C
ветер,
м/с
пор.,
м/с
влажн.,
%
обл.,
%
осадки,
мм/ч
давл.,
гПа
погр.,
м
17 января, вс
вс1700:00−20˚с38900 0.0 1016190
03:00−20˚ссз25975 0.0 1016129
06:00−20˚ссз259712 0.0 1016130
09:00−19˚сз249813 0.0 101689
12:00−15˚зсз129425 0.0 101798
15:00−13˚з249543 0.0 1017139
18:00−15˚зюз269696 0.0 1017152
21:00−14˚зюз259598 0.1 1017199
18 января, пн
пн1800:00−13˚зюз2695100 0.3 1016221
03:00−12˚зюз2695100 0.7 1017218
06:00−13˚зюз259698 0.2 1016141
09:00−13˚з229797 0.3 101677
12:00−10˚зюз129489 0.1 1017122
15:00−10˚зюз139493 0.2 1017155
18:00−13˚зюз129773 0.0 101720
21:00−13˚юз129769 0.1 101720
19 января, вт
вт1900:00−13˚зсз129677 0.1 101723
03:00−13˚зюз129767 0.1 101723
06:00−14˚зюз119772 0.0 101620
09:00−13˚зюз129778 0.1 101720
12:00−11˚юз139573 0.0 1017118
15:00−10˚зюз139680 0.1 1016108
18:00−13˚зюз229785 0.0 101620
21:00−14˚зюз229651 0.0 101720
20 января, ср
ср2000:00−14˚зюз22960 0.0 101721
03:00−15˚зюз22970 0.0 101838
06:00−15˚зюз23970 0.0 101748
09:00−15˚юз22970 0.0 101738
12:00−12˚юз24930 0.0 1018151
15:00−11˚ююз24930 0.0 1017187
18:00−14˚ю23970 0.0 101776
21:00−14˚ю379513 0.0 1016182
21 января, чт
чт2100:00−14˚ююв3989100 0.0 1014261
03:00−13˚ююв41084100 0.0 1011343
06:00−11˚ю51393100 0.6 1006559
09:00−8˚ю51294100 2.4 1003668
12:00−6˚ююз51293100 1.5 1001581
15:00−3˚юз51496100 3.9 999559
18:00+2˚зюз51498100 2.8 997604
21:00+2˚зюз51397100 4.8 997555